FW1312 Weather Reports


Display with metric or nautical units.
time (UTC)temp
F
wind
direction
speed
MPH
gust
MPH
rain 1hr
in
rain 24hr
in
rain mn
in
humidity
%
barometer
mb
20260906231506 89 137 5.0 9.0 0.00 0.00 0.00 73 1010.2
20260906230100 90 117 3.0 9.0 0.00 0.00 0.00 73 1010.2
20260906224523 89 125 3.0 8.0 0.00 0.00 0.00 74 1010.2
20260906223024 88 182 1.0 3.0 0.00 0.00 0.00 74 1010.2
20260906221505 88 184 1.0 5.0 0.00 0.00 0.00 75 1010.5
20260906220045 88 167 3.0 11.0 0.00 0.00 0.00 76 1010.6
20260906214510 87 198 5.0 9.0 0.00 0.00 0.00 76 1010.7
20260906213010 86 142 4.0 10.0 0.00 0.00 0.00 76 1010.8
20260906211517 85 170 5.0 11.0 0.00 0.00 0.00 75 1011.3
20260906210008 86 94 6.0 15.0 0.00 0.00 0.00 75 1011.5
20260906204553 87 141 5.0 12.0 0.00 0.00 0.00 75 1011.5
20260906203031 89 81 9.0 13.0 0.00 0.00 0.00 76 1011.6
20260906201529 90 153 1.0 10.0 0.00 0.00 0.00 78 1011.4
20260906200015 90 180 4.0 10.0 0.00 0.00 0.00 79 1011.2
20260906194547 90 178 6.0 15.0 0.00 0.00 0.00 80 1011.2
20260906193026 90 212 8.0 15.0 0.00 0.00 0.00 81 1011.5
20260906191548 90 175 8.0 20.0 0.00 0.00 0.00 82 1011.4
20260906190038 91 190 8.0 16.0 0.00 0.00 0.00 84 1011.5
20260906184534 90 213 5.0 9.0 0.00 0.00 0.00 85 1011.6
20260906183034 89 182 2.0 7.0 0.00 0.00 0.00 85 1011.9
20260906181511 88 89 3.0 7.0 0.00 0.00 0.00 87 1012.1
20260906180006 88 129 4.0 7.0 0.00 0.00 0.00 87 1012.4
20260906174527 87 183 3.0 10.0 0.00 0.00 0.00 87 1012.5
20260906173040 86 136 2.0 7.0 0.00 0.00 0.00 88 1012.8
20260906171526 86 138 1.0 4.0 0.00 0.00 0.00 88 1013.0
20260906170026 86 137 0.0 3.0 0.00 0.00 0.00 89 1013.3
20260906164523 85 137 1.0 4.0 0.00 0.00 0.00 89 1013.3
20260906163049 86 137 1.0 7.0 0.00 0.00 0.00 89 1013.4
20260906161539 86 124 2.0 7.0 0.00 0.00 0.00 90 1013.4
20260906160024 85 227 2.0 5.0 0.00 0.00 0.00 90 1013.4
20260906154606 85 111 3.0 8.0 0.00 0.00 0.00 90 1013.3
20260906153040 83 69 3.0 5.0 0.00 0.00 0.00 90 1013.2
20260906151602 82 161 1.0 6.0 0.00 0.00 0.00 90 1013.2
20260906150015 82 166 1.0 6.0 0.00 0.00 0.00 90 1013.4
20260906144607 81 107 1.0 4.0 0.00 0.00 0.00 89 1013.3
20260906143100 80 107 1.0 4.0 0.00 0.00 0.00 89 1013.3
20260906141521 79 124 2.0 6.0 0.00 0.00 0.00 88 1013.3
20260906140004 78 118 2.0 6.0 0.00 0.00 0.00 88 1013.2
20260906134533 77 104 2.0 6.0 0.00 0.00 0.00 88 1013.2
20260906133030 76 105 1.0 2.0 0.00 0.00 0.00 88 1013.2
20260906131529 76 105 0.0 2.0 0.00 0.00 0.00 88 1013.2
20260906130011 76 105 0.0 2.0 0.00 0.00 0.00 87 1012.9
20260906124549 75 105 1.0 3.0 0.00 0.00 0.00 87 1012.7
20260906123036 75 105 0.0 2.0 0.00 0.00 0.00 87 1012.6
20260906121549 75 105 0.0 2.0 0.00 0.00 0.00 87 1012.3
20260906120037 75 105 1.0 3.0 0.00 0.00 0.00 87 1012.2
20260906040040 78 157 0.0 0.0 0.00 0.00 0.00 79 1011.7
20260906034601 78 157 0.0 1.0 0.00 0.00 0.00 79 1011.7
20260906033039 79 155 1.0 5.0 0.00 0.00 0.00 78 1011.6
20260906031508 79 116 3.0 7.0 0.00 0.00 0.00 78 1011.9
20260906030037 79 96 3.0 7.0 0.00 0.00 0.00 78 1011.9
20260906024503 79 113 2.0 4.0 0.00 0.00 0.00 77 1011.8
20260906023027 79 119 3.0 7.0 0.00 0.00 0.00 77 1011.4
20260906021535 80 119 2.0 7.0 0.00 0.00 0.00 76 1011.1
20260906020019 80 98 3.0 8.0 0.00 0.00 0.00 76 1010.9
20260906014527 80 84 2.0 7.0 0.00 0.00 0.00 76 1010.8
20260906013031 81 100 3.0 6.0 0.00 0.00 0.00 75 1010.7
20260906011608 81 86 4.0 9.0 0.00 0.00 0.00 75 1010.5
20260906010037 82 108 4.0 10.0 0.00 0.00 0.00 74 1010.5
20260906004527 82 97 2.0 8.0 0.00 0.00 0.00 74 1010.8
20260906003015 83 116 3.0 8.0 0.00 0.00 0.00 74 1010.8
20260906001527 83 119 2.0 8.0 0.00 0.00 0.00 73 1011.0
20260906000014 84 109 3.0 8.0 0.00 0.00 0.00 72 1010.9
20260905234544 84 82 5.0 10.0 0.00 0.00 0.00 72 1011.0
20260905233035 84 97 4.0 10.0 0.00 0.00 0.00 71 1010.7